This is the latest recevied weather packets stored in our database for station/object KB1JL-13. If no packets are shown the sender has not sent any weather packets the latest 10 day(s).
| Time | Temp. | Humidity | Pressure | Rain* | Wind** | Luminosity | Snow |
|---|---|---|---|---|---|---|---|
| 1778146538 | 8.33° C | 99% | 1020.2 hPa | 0 mm | - | 0 W/m² | - |
| 1778146236 | 8.33° C | 99% | 1020.2 hPa | 0 mm | - | 0 W/m² | - |
| 1778145932 | 8.33° C | 99% | 1020.2 hPa | 1.78 mm | - | 0 W/m² | - |
| 1778145629 | 8.33° C | 99% | 1020.2 hPa | 3.56 mm | - | 0 W/m² | - |
| 1778145326 | 8.33° C | 99% | 1020.2 hPa | 1.78 mm | - | 0 W/m² | - |
| 1778145022 | 8.33° C | 99% | 1020.2 hPa | 1.27 mm | - | 0 W/m² | - |
| 1778144718 | 8.33° C | 99% | 1020.5 hPa | 3.05 mm | - | 0 W/m² | - |
| 1778144415 | 8.33° C | 99% | 1020.5 hPa | 3.05 mm | - | 0 W/m² | - |
| 1778144112 | 8.33° C | 99% | 1020.2 hPa | 4.83 mm | - | 0 W/m² | - |
| 1778143809 | 8.33° C | 99% | 1019.9 hPa | 1.78 mm | - | 0 W/m² | - |
| 1778143505 | 8.33° C | 99% | 1020.2 hPa | 0 mm | - | 0 W/m² | - |
| 1778143202 | 8.33° C | 99% | 1020.2 hPa | 0 mm | - | 0 W/m² | - |
| 1778142898 | 8.33° C | 99% | 1019.9 hPa | 0 mm | - | 0 W/m² | - |
| 1778142595 | 8.89° C | 99% | 1020.2 hPa | 1.27 mm | - | 0 W/m² | - |
| 1778142292 | 8.89° C | 99% | 1019.9 hPa | 1.27 mm | - | 0 W/m² | - |
| 1778141987 | 8.89° C | 99% | 1020.2 hPa | 0 mm | - | 0 W/m² | - |
| 1778141684 | 8.89° C | 99% | 1020.5 hPa | 0 mm | - | 0 W/m² | - |
| 1778141381 | 8.33° C | 99% | 1020.5 hPa | 0 mm | - | 0 W/m² | - |
| 1778141071 | 8.89° C | 99% | 1019.9 hPa | 0 mm | - | 0 W/m² | - |
| 1778140767 | 8.89° C | 99% | 1019.9 hPa | 1.78 mm | - | 0 W/m² | - |
| 1778140463 | 8.89° C | 99% | 1019.9 hPa | 1.78 mm | - | 0 W/m² | - |
| 1778140160 | 8.89° C | 99% | 1020.2 hPa | 1.27 mm | - | 0 W/m² | - |
| 1778139857 | 8.89° C | 99% | 1020.5 hPa | 3.05 mm | - | 0 W/m² | - |
| 1778139555 | 9.44° C | 99% | 1020.5 hPa | 1.78 mm | - | 0 W/m² | - |
| 1778139251 | 9.44° C | 99% | 1020.5 hPa | 1.27 mm | - | 0 W/m² | - |
* Rain latest hour (hover to see other rain measurements)
** Current wind speed in m/s (hover to see current wind gust speed)